Wind_Speed
27 25 22 21 22 21 23 23 28 25 30 35 35 32 27 30 36 38 34 28 33 32 31 24 32 20 19 16 10 18 22 29 33 28 35 36 44 38 34 31 29 25 14 18
30 27 23 19 21 22 21 24 26 24 27 30 33 32 30 31 37 41 37 31 37 35 35 32 30 31 25 16 21 22 17 26 28 40 35 29 32 33 24 21 24 26 27 17
28 28 26 20 19 21 21 23 25 29 31 33 34 33 34 34 34 38 38 36 33 40 35 39 36 33 29 32 35 31 30 35 33 39 35 32 8 23 31 12 19 28 28 11
26 24 24 22 20 20 22 25 32 29 23 28 32 36 34 34 36 33 42 45 42 35 38 47 44 39 35 25 33 36 36 35 32 25 17 15 15 21 15 11 24 21 26 23
26 21 20 20 20 20 21 22 25 24 24 24 25 34 35 32 36 36 31 45 42 37 41 45 48 43 42 26 26 27 34 36 42 46 28 24 13 0 1 11 14 8 14 31
26 24 21 21 20 20 22 22 27 29 27 29 26 22 29 35 33 37 33 17 30 39 39 40 40 47 49 47 31 33 39 39 40 37 33 34 34 25 17 19 28 28 27 33
29 26 22 21 21 22 21 22 26 29 28 33 32 34 35 36 40 41 39 33 28 25 41 49 44 40 47 51 51 36 31 33 40 40 35 38 39 36 27 24 32 33 37 36
31 29 27 26 25 24 25 24 25 29 30 34 33 37 40 43 43 48 43 38 43 44 44 49 49 46 46 48 48 42 35 18 16 22 29 29 27 34 35 36 33 32 37 45
32 31 30 30 28 26 25 27 27 28 30 36 39 38 40 36 38 39 41 49 50 45 43 39 41 44 40 43 42 42 39 32 28 20 17 22 23 27 30 37 36 42 46 50
33 31 32 31 30 27 27 27 30 29 27 36 39 37 37 35 34 32 34 36 43 35 35 33 28 34 36 40 41 42 38 36 35 31 29 25 28 35 40 42 45 47 48 46
34 31 32 33 30 30 28 27 29 28 27 35 38 36 34 32 32 35 37 33 39 36 39 35 32 30 27 26 23 34 42 48 46 37 37 40 40 41 44 44 50 53 56 57
31 30 31 29 28 27 28 30 28 28 27 33 34 33 33 35 36 37 33 34 38 38 33 31 33 32 28 23 18 18 28 34 31 34 44 53 52 47 51 54 55 58 60 60
29 29 28 29 26 22 27 28 28 28 28 30 27 31 33 33 34 34 37 35 37 33 26 27 27 29 34 33 32 29 41 37 34 40 44 49 50 47 57 56 56 60 61 60
28 28 27 26 25 24 26 31 20 22 26 27 28 27 29 31 34 34 35 39 36 29 25 24 23 30 39 43 39 36 40 49 46 44 47 50 47 49 53 48 49 56 58 60
28 27 26 26 26 25 23 21 16 16 20 22 26 29 27 28 29 31 35 36 33 30 28 29 30 30 41 44 37 29 45 39 39 40 44 51 51 51 49 50 48 50 49 51
28 29 27 26 28 26 19 12 9 11 14 21 18 23 23 21 23 26 29 31 30 30 30 31 32 33 38 44 43 41 41 44 49 49 49 48 46 44 45 47 48 47 47 44
27 25 23 23 25 21 17 10 9 11 12 17 23 20 22 21 21 24 25 26 27 29 32 33 32 35 39 39 40 41 44 45 45 44 47 47 49 50 46 40 40 45 43 37
29 26 25 25 22 18 15 14 10 11 11 14 22 21 21 22 21 21 22 23 24 25 27 29 31 33 38 36 31 29 37 44 47 49 51 49 45 42 40 37 40 42 40 34
31 27 25 24 20 18 15 14 13 11 11 13 24 24 17 24 21 20 20 21 23 23 24 25 29 32 34 26 29 31 36 37 37 40 41 39 36 36 32 31 40 40 39 38
32 28 28 23 17 16 13 13 11 11 11 12 23 21 18 23 23 22 21 22 22 22 23 24 23 23 22 25 27 28 25 26 28 30 30 31 33 34 33 33 36 39 37 38
32 29 23 14 12 11 9 12 10 9 10 12 20 22 22 19 22 20 19 21 21 20 21 22 22 24 24 27 24 20 17 18 25 26 27 27 26 29 29 26 30 31 33 35
30 23 14 9 9 11 12 12 9 8 8 10 20 22 23 21 20 24 21 19 20 21 20 21 22 19 21 23 19 16 18 23 22 23 22 21 23 23 21 22 24 28 33 32
27 17 12 9 12 13 17 16 13 10 10 11 13 17 19 21 25 22 30 21 16 20 20 20 19 19 20 19 18 20 24 20 20 22 21 16 19 19 21 24 25 25 28 34
25 16 12 12 13 13 18 17 15 14 6 13 15 16 18 19 20 22 20 20 16 13 16 17 14 16 20 25 21 20 21 20 20 22 18 17 19 24 25 24 24 24 24 25
23 15 11 10 12 11 17 20 19 12 13 17 17 16 14 17 19 19 18 20 24 23 21 18 17 18 19 20 21 19 20 19 17 18 20 22 20 20 21 21 22 23 25 28
21 13 9 7 9 16 16 19 28 25 21 19 19 17 19 14 20 17 19 19 19 18 18 17 15 17 19 19 18 18 17 17 17 18 18 18 17 17 18 19 20 21 19 24
19 14 12 12 11 11 14 20 21 26 28 29 19 18 20 19 13 18 21 21 19 18 13 13 13 17 15 12 13 14 15 16 16 15 14 16 17 17 18 21 19 22 24 23
Wind_Direction
304 299 294 279 274 266 258 257 251 234 238 237 234 230 224 209 207 222 222 213 201 191 182 191 216 259 237 236 214 238 209 211 227 247 252 248 255 221 219 227 237 250 265 263
303 302 298 286 272 267 256 252 255 247 240 239 237 231 226 221 212 221 225 221 201 201 192 191 202 211 209 229 226 235 227 236 232 247 248 256 244 196 208 227 241 238 247 258
302 298 297 291 273 264 259 250 248 241 236 229 229 226 220 217 213 225 227 223 214 206 208 200 196 199 202 214 233 222 214 230 244 251 257 258 257 216 203 233 240 250 235 241
309 302 298 297 285 267 258 252 252 257 253 250 234 225 222 227 213 211 227 230 226 213 204 207 203 197 197 219 226 231 216 223 230 239 241 285 255 220 186 240 228 239 247 235
313 310 307 301 294 279 265 258 254 254 246 243 245 236 224 217 221 205 223 232 233 222 219 211 213 202 196 208 224 225 230 232 230 231 214 202 272 116 226 255 230 237 238 232
313 310 308 306 301 285 270 259 250 246 240 240 232 230 229 215 216 215 207 230 240 228 227 226 220 211 208 208 215 226 228 234 234 233 227 220 221 210 194 220 226 205 219 235
314 311 308 307 303 297 280 262 252 248 236 241 239 229 223 213 208 214 214 201 213 228 221 227 224 216 217 216 220 224 240 236 244 249 242 235 232 224 203 217 219 231 231 245
313 311 309 311 309 302 289 275 262 248 236 238 236 236 235 224 215 217 208 204 214 215 225 228 227 220 221 224 221 214 224 212 235 249 242 243 228 229 237 239 235 233 238 243
312 309 308 306 303 295 287 279 267 256 239 236 235 235 237 241 240 234 221 214 231 230 232 244 239 236 226 227 230 227 230 232 221 224 216 228 221 218 214 215 239 238 240 241
310 306 306 302 300 295 293 277 270 259 244 240 235 235 238 235 233 234 234 228 234 238 237 237 238 237 230 228 225 218 226 233 239 219 218 215 221 227 229 227 237 244 247 251
310 304 303 300 291 288 292 281 274 261 244 237 235 234 232 230 228 227 228 222 229 235 233 226 225 233 230 223 231 230 225 230 230 234 233 227 226 236 235 230 236 243 248 250
309 309 307 301 291 284 287 290 272 266 241 235 234 230 228 226 221 221 230 234 235 234 239 233 221 218 206 193 205 210 225 233 240 239 236 239 241 241 244 248 248 251 255 258
308 308 314 312 302 298 298 292 276 259 231 232 227 225 223 223 223 221 220 223 233 233 232 235 220 208 187 191 208 196 211 225 227 230 235 238 243 246 235 239 247 256 264 263
307 307 312 311 314 295 304 315 270 236 223 222 221 224 224 221 219 218 219 226 229 230 226 224 221 208 206 199 211 212 211 218 217 220 229 239 247 255 252 246 246 249 259 268
309 303 308 316 311 314 303 302 239 229 223 218 217 213 210 218 216 217 217 225 227 223 221 219 217 213 215 214 213 207 223 229 225 223 233 239 241 249 259 263 271 273 261 265
311 307 300 306 316 316 306 264 259 247 225 215 207 209 200 213 213 214 216 220 222 218 222 219 218 215 219 222 224 224 235 238 244 249 250 250 256 260 263 271 274 277 274 273
313 309 310 312 311 310 304 244 261 261 231 225 195 198 198 207 209 211 213 214 214 213 216 219 221 220 224 226 226 225 234 239 243 244 247 255 263 265 269 277 273 270 275 278
315 307 305 312 302 296 288 254 251 258 255 224 183 191 196 199 206 207 207 209 211 213 218 219 220 222 231 233 234 235 234 237 243 251 257 262 265 266 269 271 269 272 277 281
316 309 303 306 293 286 282 251 238 257 258 238 200 188 186 201 195 205 205 206 208 211 215 217 221 224 233 236 235 233 233 238 241 245 250 256 259 263 266 265 273 280 286 287
317 312 308 289 275 278 271 236 233 248 244 233 197 179 200 191 192 192 203 210 209 208 209 216 220 226 232 234 232 236 241 243 245 247 248 254 258 263 266 264 271 277 280 280
320 319 305 277 259 264 237 222 228 230 223 217 192 183 179 201 198 199 205 213 213 215 218 222 227 229 231 240 244 245 242 242 243 247 251 259 270 274 273 270 270 274 277 276
320 318 302 270 239 215 218 214 212 209 208 200 201 183 199 199 200 190 198 219 217 225 232 234 235 242 245 252 249 256 255 248 251 257 263 267 259 263 268 270 275 275 270 267
321 309 291 259 242 229 213 208 199 193 196 196 198 204 201 194 194 190 206 183 204 224 225 235 233 235 235 242 255 247 250 253 256 260 264 263 265 271 278 278 278 282 274 276
320 302 283 249 238 230 210 204 194 201 197 224 208 208 205 199 210 216 220 219 203 212 215 229 225 244 236 242 244 247 255 257 257 263 268 266 271 279 281 283 282 283 287 287
316 295 281 258 226 208 212 206 197 193 219 221 218 213 209 208 212 213 208 215 222 233 242 241 246 242 239 239 243 245 248 252 255 258 264 268 274 280 286 284 283 286 289 292
312 281 259 238 219 207 204 203 192 203 224 220 222 216 215 208 199 208 217 219 220 222 233 237 239 242 233 237 239 240 245 250 256 258 262 269 273 282 286 286 288 283 282 289
308 265 245 225 216 214 215 211 211 217 224 224 225 204 214 219 226 218 218 220 223 231 235 237 279 234 233 226 234 244 253 254 259 260 267 272 270 278 286 296 290 288 292 293
Height
5785 5783 5781 5779 5778 5777 5777 5778 5778 5785 5786 5791 5795 5802 5808 5814 5817 5818 5821 5827 5833 5836 5839 5842 5845 5853 5856 5862 5865 5867 5872 5879 5879 5883 5881 5883 5886 5893 5893 5895 5903 5905 5906 5906
5778 5774 5773 5772 5771 5770 5770 5771 5771 5776 5779 5783 5787 5794 5799 5803 5808 5810 5816 5819 5826 5832 5833 5836 5841 5846 5852 5859 5859 5863 5869 5869 5871 5867 5874 5881 5876 5881 5887 5891 5895 5899 5904 5905
5770 5767 5764 5764 5764 5763 5764 5764 5764 5764 5766 5771 5776 5782 5788 5792 5799 5804 5809 5810 5815 5823 5829 5831 5835 5841 5847 5851 5852 5856 5858 5862 5862 5864 5870 5868 5869 5870 5877 5886 5888 5891 5894 5901
5764 5761 5757 5756 5756 5756 5757 5756 5753 5758 5766 5766 5768 5771 5779 5785 5788 5795 5802 5802 5805 5813 5818 5823 5828 5835 5840 5841 5845 5848 5853 5854 5860 5861 5866 5859 5861 5868 5872 5880 5883 5888 5894 5894
5759 5756 5752 5750 5749 5749 5750 5751 5751 5754 5754 5756 5761 5764 5770 5776 5781 5784 5790 5792 5799 5805 5810 5813 5820 5828 5832 5834 5838 5841 5844 5848 5852 5854 5863 5866 5860 5867 5866 5877 5882 5884 5889 5881
5754 5751 5748 5745 5743 5742 5742 5742 5743 5743 5748 5748 5752 5758 5761 5765 5773 5777 5779 5786 5789 5794 5801 5805 5811 5817 5823 5823 5827 5831 5836 5840 5843 5848 5857 5861 5859 5864 5870 5874 5876 5874 5878 5873
5747 5744 5741 5739 5736 5734 5734 5735 5734 5736 5741 5739 5743 5746 5748 5753 5762 5767 5772 5775 5779 5787 5784 5790 5800 5808 5813 5816 5821 5825 5827 5833 5836 5839 5846 5846 5854 5858 5861 5863 5865 5868 5870 5866
5739 5736 5733 5731 5729 5727 5725 5725 5725 5726 5731 5731 5735 5736 5740 5741 5747 5752 5761 5766 5767 5772 5776 5781 5788 5798 5803 5808 5813 5818 5820 5824 5829 5831 5836 5842 5847 5850 5851 5850 5854 5855 5858 5858
5731 5728 5725 5721 5720 5718 5717 5716 5715 5716 5720 5720 5722 5727 5732 5740 5744 5748 5755 5758 5758 5764 5771 5775 5783 5789 5798 5803 5810 5815 5817 5816 5820 5825 5827 5832 5839 5839 5841 5843 5844 5844 5846 5848
5724 5720 5717 5713 5710 5709 5707 5706 5704 5706 5709 5710 5713 5719 5725 5732 5737 5742 5745 5752 5753 5760 5764 5770 5775 5780 5789 5793 5800 5809 5812 5814 5813 5815 5820 5826 5823 5827 5830 5834 5834 5831 5834 5836
5717 5712 5708 5705 5702 5699 5698 5697 5695 5695 5700 5699 5703 5710 5717 5723 5730 5731 5736 5743 5745 5751 5756 5762 5768 5773 5780 5784 5791 5797 5803 5807 5808 5812 5813 5815 5814 5815 5819 5820 5819 5822 5825 5826
5709 5704 5700 5696 5693 5690 5688 5686 5685 5684 5688 5690 5695 5701 5707 5712 5718 5723 5731 5737 5736 5741 5748 5755 5760 5766 5772 5776 5782 5790 5793 5791 5797 5801 5801 5799 5803 5807 5807 5807 5811 5813 5814 5814
5701 5697 5693 5688 5685 5682 5678 5675 5673 5673 5678 5681 5687 5691 5696 5703 5710 5716 5721 5726 5728 5735 5744 5751 5756 5761 5766 5770 5771 5774 5778 5783 5786 5791 5788 5787 5788 5794 5796 5798 5799 5798 5799 5803
5694 5690 5686 5682 5678 5674 5669 5665 5663 5665 5669 5674 5679 5686 5691 5695 5700 5708 5714 5717 5723 5732 5739 5744 5750 5756 5759 5761 5762 5767 5768 5771 5774 5777 5779 5779 5784 5783 5783 5787 5790 5793 5795 5793
5687 5683 5679 5675 5671 5667 5663 5660 5660 5662 5666 5669 5673 5678 5684 5689 5694 5701 5706 5711 5718 5725 5730 5736 5740 5746 5751 5754 5758 5757 5759 5762 5764 5763 5769 5771 5773 5774 5773 5775 5780 5784 5787 5787
5679 5676 5672 5669 5665 5661 5657 5656 5656 5658 5661 5664 5669 5673 5678 5684 5690 5695 5700 5705 5712 5718 5723 5728 5733 5739 5743 5747 5753 5757 5757 5761 5761 5761 5762 5762 5765 5768 5770 5772 5772 5769 5769 5772
5673 5669 5666 5663 5659 5656 5654 5654 5654 5655 5657 5660 5664 5669 5675 5681 5685 5690 5695 5700 5706 5711 5715 5721 5727 5732 5733 5737 5742 5750 5753 5752 5751 5754 5757 5761 5761 5760 5762 5764 5762 5758 5759 5760
5666 5663 5660 5657 5653 5651 5651 5651 5652 5653 5655 5657 5661 5666 5672 5677 5682 5687 5692 5696 5701 5705 5710 5715 5721 5724 5724 5730 5737 5742 5745 5744 5745 5747 5748 5749 5751 5752 5754 5750 5748 5748 5747 5749
5660 5656 5653 5650 5648 5646 5647 5647 5649 5651 5654 5654 5657 5664 5671 5673 5678 5683 5688 5692 5696 5700 5705 5709 5713 5715 5717 5726 5728 5731 5732 5735 5739 5739 5740 5741 5742 5740 5741 5741 5735 5736 5735 5735
5653 5649 5645 5642 5641 5641 5642 5644 5646 5648 5650 5651 5655 5661 5665 5670 5674 5679 5684 5689 5693 5696 5700 5702 5707 5711 5715 5716 5717 5720 5725 5726 5728 5730 5731 5731 5730 5731 5732 5732 5731 5728 5728 5728
5646 5641 5637 5636 5635 5637 5639 5641 5644 5646 5648 5649 5652 5658 5663 5668 5673 5677 5681 5684 5688 5692 5696 5699 5702 5704 5706 5707 5712 5716 5719 5719 5719 5720 5721 5722 5724 5722 5723 5724 5722 5721 5719 5717
5640 5635 5633 5632 5632 5633 5637 5639 5643 5644 5646 5648 5650 5655 5659 5664 5670 5675 5678 5681 5685 5688 5692 5694 5696 5700 5702 5702 5707 5710 5711 5710 5713 5714 5715 5716 5714 5713 5714 5714 5715 5714 5711 5708
5634 5631 5630 5630 5630 5631 5634 5637 5641 5643 5645 5647 5650 5653 5657 5661 5665 5668 5673 5675 5678 5682 5685 5687 5691 5695 5697 5698 5702 5704 5704 5706 5708 5708 5708 5709 5707 5708 5708 5707 5706 5705 5704 5702
5629 5627 5626 5626 5627 5629 5631 5635 5639 5642 5646 5647 5648 5651 5654 5659 5663 5665 5669 5674 5676 5679 5682 5684 5688 5690 5691 5692 5695 5697 5698 5699 5701 5699 5701 5702 5702 5700 5699 5698 5697 5696 5694 5693
5624 5623 5622 5622 5623 5626 5628 5632 5636 5640 5640 5643 5647 5650 5654 5656 5659 5662 5667 5669 5673 5675 5677 5681 5681 5683 5685 5687 5689 5691 5692 5694 5695 5695 5695 5695 5694 5693 5692 5691 5689 5688 5686 5685
5619 5618 5619 5619 5621 5622 5625 5628 5632 5633 5635 5640 5644 5646 5648 5648 5654 5659 5662 5665 5667 5670 5672 5675 5676 5677 5679 5682 5684 5685 5686 5688 5689 5690 5690 5690 5689 5688 5687 5685 5684 5681 5680 5679
5614 5613 5614 5616 5617 5619 5621 5624 5627 5630 5633 5636 5640 5643 5645 5648 5651 5655 5658 5660 5663 5667 5670 5670 5672 5673 5674 5676 5678 5680 5681 5682 5682 5684 5684 5684 5684 5683 5682 5680 5678 5676 5674 5672